Weather History for Alexander City, AL

Change the Weather History Date:

Sunday, May 26, 2013

  Actual Average (KAUO) Record (KAUO)
Temperature  
Mean Temperature 72 °F -  
Max Temperature 90 °F - 95 °F (2012)
Min Temperature 55 °F - 38 °F (1961)
Cooling Degree Days 8    
Month to date cooling degree days  
Year to date cooling degree days  
Growing Degree Days 22 (Base 50)    
Moisture  
Dew Point 55 °F    
Average Humidity 61    
Maximum Humidity 88    
Minimum Humidity 24    
Precipitation  
Precipitation 0.00 in - 0.67 in (1984)
Month to date precipitation  
Year to date precipitation  
Sea Level Pressure  
Sea Level Pressure 30.21 in    
Wind  
Wind Speed 1 mph (South)    
Max Wind Speed 6 mph    
Max Gust Speed -    
Visibility 10 miles    
Events      
T = Trace of Precipitation, MM = Missing Value Source: NWS Daily Summary

Daily Weather History Graph

Daily Weather History Graph

Search for Another Location

Airport:

Trip Planner

Search our weather history database for the weather conditions in past years. The results will help you decide how hot, cold, wet, or windy it might be!

Date:

Astronomy

May. 26, 2013 Rise Set
Actual Time 5:38 AM CDT 7:43 PM CDT
Civil Twilight 5:10 AM CDT 8:11 PM CDT
Nautical Twilight 4:36 AM CDT 8:45 PM CDT
Astronomical Twilight 4:00 AM CDT 9:22 PM CDT
Moon 9:32 PM CDT (5/26) 7:06 AM CDT (5/26)
Length of Visible Light 15h 01m
Length of Day
14h 05m
Waning Gibbous, 96% of the Moon is Illuminated
May 26
Waning Gibbous
May 31
Last Quarter
Jun 8
New
Jun 16
First Quarter
Jun 23
Full

Hourly Weather History & Observations

Time (CDT) Temp. Heat Index Dew Point Humidity Pressure Visibility Wind Dir Wind Speed Gust Speed Precip Events Conditions
12:15 AM 63.7 °F - 58.3 °F 83% 30.21 in 10.0 mi Calm Calm - N/A   Clear
12:35 AM 61.0 °F - 56.7 °F 86% 30.20 in 10.0 mi Calm Calm - N/A   Clear
12:55 AM 60.3 °F - 56.3 °F 87% 30.19 in 10.0 mi Calm Calm - N/A   Clear
1:15 AM 60.3 °F - 56.3 °F 87% 30.18 in 10.0 mi Calm Calm - N/A   Clear
1:35 AM 60.3 °F - 56.3 °F 87% 30.18 in 10.0 mi Calm Calm - N/A   Clear
1:55 AM 60.3 °F - 56.5 °F 87% 30.18 in 10.0 mi Calm Calm - N/A   Clear
2:15 AM 57.7 °F - 54.1 °F 88% 30.18 in 10.0 mi Calm Calm - N/A   Clear
2:35 AM 58.5 °F - 54.9 °F 88% 30.18 in 10.0 mi Calm Calm - N/A   Clear
2:55 AM 57.7 °F - 54.0 °F 87% 30.18 in 10.0 mi Calm Calm - N/A   Clear
3:15 AM 57.7 °F - 54.0 °F 87% 30.19 in 10.0 mi Calm Calm - N/A   Clear
3:35 AM 57.7 °F - 54.1 °F 88% 30.19 in 10.0 mi Calm Calm - N/A   Clear
3:55 AM 57.0 °F - 53.1 °F 87% 30.19 in 10.0 mi Calm Calm - N/A   Clear
4:15 AM 55.4 °F - 51.8 °F 88% 30.19 in 10.0 mi Calm Calm - N/A   Clear
4:35 AM 57.0 °F - 53.4 °F 88% 30.21 in 10.0 mi North 3.5 mph - N/A   Clear
4:55 AM 60.3 °F - 56.3 °F 87% 30.21 in 10.0 mi Calm Calm - N/A   Clear
5:15 AM 60.3 °F - 56.1 °F 86% 30.21 in 10.0 mi Calm Calm - N/A   Clear
5:35 AM 57.7 °F - 54.1 °F 88% 30.22 in 10.0 mi Calm Calm - N/A   Clear
5:55 AM 57.7 °F - 53.6 °F 86% 30.22 in 10.0 mi Calm Calm - N/A   Clear
6:15 AM 57.9 °F - 52.9 °F 83% 30.24 in 10.0 mi Calm Calm - N/A   Clear
6:35 AM 58.1 °F - 53.1 °F 83% 30.25 in 10.0 mi Calm Calm - N/A   Clear
6:55 AM 60.3 °F - 54.7 °F 82% 30.26 in 10.0 mi Calm Calm - N/A   Clear
7:15 AM 60.4 °F - 53.8 °F 79% 30.26 in 10.0 mi Calm Calm - N/A   Clear
7:35 AM 63.1 °F - 54.3 °F 73% 30.26 in 10.0 mi Calm Calm - N/A   Clear
7:55 AM 68.0 °F - 57.6 °F 69% 30.26 in 10.0 mi Calm Calm - N/A   Clear
8:15 AM 70.7 °F - 57.6 °F 63% 30.27 in 10.0 mi Calm Calm - N/A   Clear
8:35 AM 72.9 °F - 57.7 °F 59% 30.27 in 10.0 mi East 3.5 mph - N/A   Clear
8:55 AM 75.6 °F - 57.4 °F 53% 30.27 in 10.0 mi East 3.5 mph - N/A   Clear
9:15 AM 75.6 °F - 57.4 °F 53% 30.27 in 10.0 mi Calm Calm - N/A   Clear
9:35 AM 75.6 °F - 55.0 °F 49% 30.27 in 10.0 mi Calm Calm - N/A   Clear
9:55 AM 78.1 °F - 56.8 °F 48% 30.27 in 10.0 mi Calm Calm - N/A   Clear
10:15 AM 78.3 °F - 56.3 °F 47% 30.26 in 10.0 mi Calm Calm - N/A   Clear
10:35 AM 80.6 °F 80.5 °F 55.6 °F 42% 30.26 in 10.0 mi Calm Calm - N/A   Clear
10:55 AM 81.1 °F 80.7 °F 54.3 °F 39% 30.26 in 10.0 mi Calm Calm - N/A   Clear
11:15 AM 82.8 °F - 50.2 °F 32% 30.25 in 10.0 mi Calm Calm - N/A   Clear
11:35 AM 82.0 °F - 49.3 °F 32% 30.25 in 10.0 mi Calm Calm - N/A   Clear
11:55 AM 82.6 °F - 46.2 °F 28% 30.25 in 10.0 mi East 3.5 mph - N/A   Clear
12:15 PM 83.5 °F - 46.0 °F 27% 30.24 in 10.0 mi WSW 4.6 mph - N/A   Clear
12:35 PM 83.3 °F - 46.9 °F 28% 30.23 in 10.0 mi West 4.6 mph - N/A   Clear
12:55 PM 84.0 °F - 46.6 °F 27% 30.23 in 10.0 mi West 4.6 mph - N/A   Clear
1:15 PM 84.4 °F - 47.3 °F 27% 30.23 in 10.0 mi SSW 3.5 mph - N/A   Clear
1:35 PM 88.2 °F - 51.4 °F 28% 30.22 in 10.0 mi WSW 3.5 mph - N/A   Clear
1:55 PM 86.2 °F - 49.6 °F 28% 30.22 in 10.0 mi WNW 4.6 mph - N/A   Clear
2:15 PM 89.2 °F - 52.2 °F 28% 30.21 in 10.0 mi SE 3.5 mph - N/A   Clear
2:35 PM 88.2 °F - 49.5 °F 26% 30.21 in 10.0 mi SSW 5.8 mph - N/A   Clear
2:55 PM 88.7 °F - 49.5 °F 26% 30.20 in 10.0 mi Calm Calm - N/A   Clear
3:15 PM 88.2 °F - 47.5 °F 24% 30.19 in 10.0 mi WNW 3.5 mph - N/A   Clear
3:35 PM 90.1 °F - 51.6 °F 27% 30.18 in 10.0 mi SSW 4.6 mph - N/A   Clear
3:55 PM 90.7 °F 88.7 °F 55.0 °F 30% 30.18 in 10.0 mi SSW 4.6 mph - N/A   Clear
4:15 PM 88.5 °F 86.3 °F 53.2 °F 30% 30.18 in 10.0 mi South 4.6 mph - N/A   Clear
4:35 PM 88.2 °F - 52.7 °F 30% 30.18 in 10.0 mi SSE 4.6 mph - N/A   Clear
4:55 PM 88.2 °F 86.1 °F 53.6 °F 31% 30.18 in 10.0 mi South 3.5 mph - N/A   Clear
5:15 PM 85.6 °F - 50.4 °F 29% 30.18 in 10.0 mi SE 4.6 mph - N/A   Clear
5:35 PM 84.9 °F - 51.3 °F 31% 30.17 in 10.0 mi ESE 3.5 mph - N/A   Clear
5:55 PM 84.6 °F - 51.1 °F 31% 30.17 in 10.0 mi SE 3.5 mph - N/A   Clear
6:15 PM 84.4 °F 82.9 °F 54.1 °F 35% 30.17 in 10.0 mi Calm Calm - N/A   Clear
6:35 PM 83.8 °F 82.8 °F 55.4 °F 38% 30.16 in 10.0 mi Calm Calm - N/A   Clear
6:55 PM 83.3 °F 82.3 °F 55.2 °F 38% 30.16 in 10.0 mi Calm Calm - N/A   Clear
7:15 PM 81.9 °F 81.4 °F 56.3 °F 41% 30.17 in 10.0 mi Calm Calm - N/A   Clear
7:35 PM 78.1 °F - 64.8 °F 63% 30.17 in 10.0 mi Calm Calm - N/A   Clear
7:55 PM 75.6 °F - 65.3 °F 70% 30.17 in 10.0 mi Calm Calm - N/A   Clear
8:15 PM 75.6 °F - 67.5 °F 76% 30.17 in 10.0 mi Calm Calm - N/A   Clear
8:35 PM 71.2 °F - 64.0 °F 78% 30.17 in 10.0 mi Calm Calm - N/A   Clear
8:55 PM 70.7 °F - 65.1 °F 82% 30.17 in 10.0 mi Calm Calm - N/A   Clear
9:15 PM 70.7 °F - 64.4 °F 80% 30.18 in 10.0 mi Calm Calm - N/A   Clear
9:35 PM 70.7 °F - 64.2 °F 80% 30.18 in 10.0 mi Calm Calm - N/A   Clear
9:55 PM 68.0 °F - 62.6 °F 83% 30.18 in 10.0 mi Calm Calm - N/A   Clear
10:15 PM 68.0 °F - 63.7 °F 86% 30.18 in 10.0 mi Calm Calm - N/A   Clear
10:35 PM 66.4 °F - 61.5 °F 84% 30.19 in 10.0 mi Calm Calm - N/A   Clear
10:55 PM 65.5 °F - 60.8 °F 85% 30.18 in 10.0 mi Calm Calm - N/A   Clear
11:15 PM 64.4 °F - 59.9 °F 85% 30.18 in 10.0 mi Calm Calm - N/A   Clear
11:35 PM 65.5 °F - 61.7 °F 88% 30.18 in 10.0 mi Calm Calm - N/A   Clear
11:55 PM 65.5 °F - 61.7 °F 88% 30.18 in 10.0 mi Calm Calm - N/A   Clear